Location: Newark
(35.8833°N, 14.5000°E)
Time: 04:49:36
(UTC+00:00)

UNISAT 6 - Pass Details

Date: 28 May 2019
Orbit: 606 x 690 km, 97.8° (Epoch: 18 June)

Event Time Altitude Azimuth Distance (km) Brightness Sun altitude
Rises 20:34:39 0° 1° (N) 2,900 ? -23.2°
Reaches altitude 10° 20:37:00 10° 352° (N) 1,980 ? -23.5°
Maximum altitude 20:40:52 33° 288° (WNW) 1,021 ? -23.9°
Enters shadow 20:43:25 18° 234° (SW) 1,510 ? -24.2°
